LFOCLFLC

Guest
Details From LFOC - Chateaudun AB
To LFLC - Clermont-Ferrand_Auvergne
Flight Number -
Tags generated
Created
Modified
Stats Distance 156 nm / 288 km
Max Altitude 19,600 ft / 5,974 m
Waypoints 3
Social Downloads 0
Likes 0
Share VATSIM

Download

Looking for another format? Having issues loading an existing format? Contact us
Advertisement - Login to hide

Notes

Basic altitude profile: - Ascent Rate: 2500ft/min - Ascent Speed: 250kts - Cruise Altitude: 8000ft - Cruise Speed: 150kts - Descent Rate: 1500ft/min - Descent Speed: 250kts Options: - Use NATs: yes - Use PACOTS: yes - Use low airways: yes - Use high airways: no

Route

LFOC DEPOM LFLC

ID Type Via Altitude Latitude Longitude Leg Dist Tot Dist Heading (true) Name
O LFOC APT - 0 ft / 0 m 48.05814˚ 1.37662˚ - 0 nm - Chateaudun AB
DEPOM FIX - 19,600 ft / 5,974 m 47.31778˚ 2.17917˚ 55 nm 55 nm 144° / 144° -
O LFLC APT - 0 ft / 0 m 45.78671˚ 3.16997˚ 100 nm 155 nm 156° / 156° Clermont-Ferrand_Auvergne

Altitude Profile

Advertisement - Login to hide

LFOC

Details ICAO LFOC
Name Chateaudun AB
Region France
Timezone Europe/Paris (UTC+2.0)
Stats Elevation 433 ft / 132 m (AMSL)
Location 48.058141° 1.376625°
Runways 1
Magnetic Variation 0.402° E

METAR

LFOC 210730Z AUTO 03005KT 350V060 CAVOK 15/11 Q1013

Decode

TAF

Not found

Departure Runways

ID Width Length Bearing (true) Bearing (mag) Surface Threshold Offset Overrun Length
10 148 ft / 45 m 7,532 ft / 2,296 m 98.03° 97.63° Asphalt 0 ft / 0 m 673 ft / 205 m
28 148 ft / 45 m 7,532 ft / 2,296 m 278.06° 277.66° Asphalt 0 ft / 0 m 663 ft / 202 m

LFLC

Details ICAO LFLC (CFE)
Name Clermont-Ferrand_Auvergne
Region France
Timezone Europe/Paris (UTC+2.0)
Stats Elevation 1,089 ft / 332 m (AMSL)
Location 45.786712° 3.169967°
Runways 1
Magnetic Variation 1.033° E

METAR

LFLC 210730Z AUTO 14003KT 080V190 CAVOK 15/12 Q1013 BECMG SCT060TCU

Decode

TAF

TAF LFLC 210200Z 2103/2203 18005KT CAVOK BECMG 2108/2110 SCT060TCU TEMPO 2111/2123 VRB10KT SHRA BKN050TCU PROB40 TEMPO 2115/2120 VRB15KT 7000 TSRA SCT030 BKN060CB

Decode

Destination Runways

ID Width Length Bearing (true) Bearing (mag) Surface Threshold Offset Overrun Length
08 148 ft / 45 m 9,878 ft / 3,011 m 81.95° 80.92° Asphalt 0 ft / 0 m 0 ft / 0 m
26 148 ft / 45 m 9,878 ft / 3,011 m 261.98° 260.95° Asphalt 476 ft / 145 m 0 ft / 0 m

Approach Navaids

Runway Type Ident Frequency Range Bearing (true) Bearing (mag) Slope Elevation
26 Localiser CF 111.10 MHz 27 nm / 50 km 261.98° 260.95° - 1,089 ft / 332 m (AMSL)
26 Glidescope CF 111.10 MHz 27 nm / 50 km 261.98° 260.95° 3.00° 1,089 ft / 332 m (AMSL)
26 DME CF 111.10 MHz 27 nm / 50 km - - - 1,089 ft / 332 m (AMSL)

Popular Alternatives